ORBCOMM FM 36 DEB, 56437

Orbit data source: Space-Track

ORBCOMM FM 36 DEB, 56437 is space debris in LEO originally from a launch on Sat, 04 Dec 1999 UTC launched from the Air Force Eastern Test Range (AFETR). Debris objects in space refer to the collection of defunct objects orbiting the Earth. Examples of debris include non-operational satellites, rocket bodies, and fragments generated from explosions, collisions, or faulty payload assembly.

Loading next visibility...
Identifier
56437, 1999-065N
Orbit
LEO
Country
Flag of USUS / ORB
Related business
Manufacturer
OSC-Germantown
Mission
Spacecraft
Bus & Motor
Unknown
Mass
Unknown
Launch date (UTC)
1999-12-04 (27 years ago)
Launch vehicle
Unknown
Launch site
Air Force Eastern Test Range (AFETR)
Object type
Payload
Rocket body
Debris
Shape & HBR
Unknown shape, 0.1 m
Radar Cross Section
Medium (>0.1 m² and <1 m²)

Expand to show TLE details & history
Last TLE update: 2 days ago

TLE from 2 days ago
0 ORBCOMM FM 36 DEB
1 56437U 99065N   26171.23733696  .00000239  00000-0  12096-3 0  9995
2 56437  44.9389 120.9172 0015997  65.1855 295.0654 14.39528521172187
Epoch: 2026-06-20T05:41Z
TLE epoch observation values (Epoch: 2026-06-20T05:41:45.913Z)
Latitude
-0.00008°
Longitude
127.02097°
Altitude
755.227 km
Speed
7.481 km/s
True Right ascension
08h 03m 40s
True Declination
0° 00' 00"
Sunlit
Object was in daylight at epoch
Visualization orbit readout
Latitude
Unknown
Longitude
Unknown
Altitude
Unknown
Speed
Unknown
Apparent Right ascension
Unknown
Apparent Declination
Unknown
Sunlit
N/A
Visualization observer readout
Local Sidereal Time
21:31:35
Azimuth
Unknown
Elevation
Unknown
Doppler factor
Unknown
Orbital elements
Apogee altitude
773.035 km
Perigee altitude
750.192 km
Semi-major axis
7,139.751 km
Eccentricity
0.0016
Inclination
44.9389°
RAAN
120.9172°
Arg. of periapsis
65.1855°
True anomaly
294.89921°
Mean anomaly
295.0654°
Eccentric anomaly
294.98232°
Mean motion
3.59765 °/min
Orbital period
100.07 mins
BSTAR
0.00012096
Loading maneuver chart data...
Computing Atmospheric mass density...

Documentation

Showing up to 5 results
|